sat.trackr.live / text

‹ back to catalog

QIANFAN-184

NORAD 69402 · 2026-125B

PAYLOAD ACTIVE UNKNOWN

§ Identity

Operator
Country
PRC
Launch date
2026-06-05
Launch site
WSC
Launch vehicle
Mass (kg)
RCS (m²)

External: N2YO · Heavens-Above · Gunter

§ Orbital elements

Epoch: 2026-09-20T04:00:16.337664Z

Period
106.59 min
Inclination
88.9883°
Eccentricity
0.0001986
Mean motion
13.51028750 rev/d
Perigee alt
1,067.0 km
Apogee alt
1,070.0 km
Semi-major
7,446.6 km
B*
4.5270e-5
RAAN
270.3651°
Arg perigee
97.6365°
Mean anomaly
262.5012°
Rev number
1,476

§ Raw data

QIANFAN-1841 69402U 26125B   26263.16685576  .00000041  00000+0  45270-4 0  99962 69402  88.9883 270.3651 0001986  97.6365 262.5012 13.51028750 14769

JSON: /api/v1/satellites/69402 · /tle

For live sub-satellite position, see the globe view (requires WebGL).

§ Visibility from observer

Set your observer location to see the next 7 days of passes ≥ 10°. The values pass through the URL so the page stays shareable.

No JS? Fill the form by hand. The geolocation button needs JavaScript.